Pearland, TX

7:47 PM CST on January 24, 2017 (GMT -0600)
Clover

Weather History for KLVJ - November, 2012

Change the Weather History Date:

Friday, November 23, 2012

  Actual Average (KEFD) Record (KEFD)
Temperature  
Mean Temperature 67 °F -  
Max Temperature 77 °F 69 °F 84 °F (2001)
Min Temperature 57 °F 50 °F 39 °F (2015)
Cooling Degree Days 2    
Growing Degree Days 17 (Base 50)    
Moisture  
Dew Point 58 °F    
Average Humidity 79    
Maximum Humidity 94    
Minimum Humidity 52    
Precipitation  
Precipitation 0.20 in - - ()
Sea Level Pressure  
Sea Level Pressure 30.23 in    
Wind  
Wind Speed 3 mph (North)    
Max Wind Speed 15 mph    
Max Gust Speed 26 mph    
Visibility 7 miles    
Events Rain , Thunderstorm    
Averages and records for this station are not official NWS values.
T = Trace of Precipitation, MM = Missing Value Source: NWS Daily Summary

Daily Weather History Graph

Daily Weather History Graph

Search for Another Location

Airport or City:

Trip Planner

Search our weather history database for the weather conditions in past years. The results will help you decide how hot, cold, wet, or windy it might be!

Date:

Astronomy

Nov. 23, 2012 Rise Set
Actual Time 6:52 AM CST 5:22 PM CST
Civil Twilight 6:26 AM CST 5:48 PM CST
Nautical Twilight 5:57 AM CST 6:17 PM CST
Astronomical Twilight 5:28 AM CST 6:46 PM CST
Moon 2:22 PM CST (11/23) 2:29 AM CST (11/23)
Length of Visible Light 11h 21m
Length of Day
10h 30m
Waxing Gibbous, 80% of the Moon is Illuminated
Nov 23
Waxing Gibbous
Nov 28
Full
Dec 6
Last Quarter
Dec 13
New
Dec 19
First Quarter

Hourly Weather History & Observations

Time (CST) Temp. Dew Point Humidity Pressure Visibility Wind Dir Wind Speed Gust Speed Precip Events Conditions
12:41 AM 60.8 °F 57.2 °F 88% 30.17 in 1.8 mi Calm Calm - N/A   Clear
12:53 AM 60.1 °F 57.0 °F 90% 30.17 in 5.0 mi Calm Calm - N/A   Clear
1:53 AM 59.0 °F 55.9 °F 90% 30.16 in 4.0 mi Calm Calm - N/A   Clear
2:10 AM 57.2 °F 55.4 °F 94% 30.17 in 1.5 mi Calm Calm - N/A   Clear
2:19 AM 57.2 °F 55.4 °F 94% 30.17 in 0.8 mi Calm Calm - N/A   Clear
2:27 AM 57.2 °F 55.4 °F 94% 30.17 in 2.0 mi Calm Calm - N/A   Clear
2:37 AM 57.2 °F 53.6 °F 88% 30.17 in 5.0 mi Calm Calm - N/A   Clear
2:53 AM 57.9 °F 55.0 °F 90% 30.17 in 6.0 mi Calm Calm - N/A   Clear
3:53 AM 60.1 °F 55.9 °F 86% 30.18 in 8.0 mi Calm Calm - N/A   Overcast
4:53 AM 60.1 °F 55.9 °F 86% 30.18 in 6.0 mi Calm Calm - N/A   Mostly Cloudy
6:53 AM 63.0 °F 57.9 °F 84% 30.21 in 8.0 mi Calm Calm - N/A   Overcast
7:53 AM 64.9 °F 61.0 °F 87% 30.23 in 6.0 mi Calm Calm - N/A   Overcast
8:53 AM 68.0 °F 61.0 °F 78% 30.25 in 10.0 mi Calm Calm - N/A   Overcast
9:53 AM 72.0 °F 60.1 °F 66% 30.26 in 10.0 mi Calm Calm - N/A   Mostly Cloudy
10:53 AM 75.9 °F 57.9 °F 54% 30.25 in 10.0 mi Variable 3.5 mph - N/A   Mostly Cloudy
11:53 AM 75.9 °F 59.0 °F 56% 30.24 in 10.0 mi SW 6.9 mph - N/A   Overcast
12:53 PM 75.9 °F 60.1 °F 58% 30.22 in 10.0 mi SW 6.9 mph - N/A   Overcast
1:53 PM 77.0 °F 60.1 °F 56% 30.20 in 10.0 mi SSW 4.6 mph - N/A   Overcast
2:29 PM 75.2 °F 62.6 °F 65% 30.19 in 10.0 mi WSW 5.8 mph - N/A Thunderstorm Overcast
2:53 PM 69.1 °F 63.0 °F 81% 30.20 in 6.0 mi North 9.2 mph - 0.01 in Rain , Thunderstorm Light Thunderstorms and Rain
3:05 PM 66.2 °F 62.6 °F 88% 30.22 in 2.5 mi WNW 6.9 mph - 0.06 in Rain , Thunderstorm Heavy Thunderstorms and Rain
3:17 PM 68.0 °F 62.6 °F 83% 30.21 in 1.5 mi Calm Calm - 0.15 in Rain , Thunderstorm Heavy Thunderstorms and Rain
3:23 PM 66.2 °F 62.6 °F 88% 30.21 in 3.0 mi WNW 3.5 mph - 0.16 in Rain , Thunderstorm Light Thunderstorms and Rain
3:45 PM 68.0 °F 64.4 °F 88% 30.20 in 6.0 mi NW 5.8 mph - 0.17 in Rain Light Rain
3:53 PM 68.0 °F 64.0 °F 87% 30.20 in 5.0 mi NW 3.5 mph - 0.19 in Rain Rain
4:43 PM 69.8 °F 62.6 °F 78% 30.23 in 9.0 mi NE 11.5 mph 20.7 mph 0.00 in   Overcast
4:53 PM 68.0 °F 63.0 °F 84% 30.23 in 9.0 mi ENE 9.2 mph - 0.00 in   Overcast
5:53 PM 66.9 °F 61.0 °F 81% 30.25 in 9.0 mi ENE 8.1 mph - N/A   Overcast
6:53 PM 66.0 °F 60.1 °F 81% 30.28 in 9.0 mi NNE 6.9 mph - N/A   Overcast
7:25 PM 66.2 °F 59.0 °F 78% 30.28 in 10.0 mi NNE 9.2 mph - N/A   Overcast
7:53 PM 66.9 °F 59.0 °F 76% 30.29 in 10.0 mi NNE 10.4 mph - N/A   Overcast
8:48 PM 62.6 °F 57.2 °F 82% 30.32 in 10.0 mi NNE 12.7 mph 26.5 mph 0.00 in   Overcast
8:53 PM 63.0 °F 57.9 °F 84% 30.31 in 10.0 mi NNE 15.0 mph 26.5 mph 0.00 in   Overcast
9:53 PM 62.1 °F 57.0 °F 84% 30.33 in 7.0 mi NNE 9.2 mph - N/A   Overcast
10:06 PM 62.6 °F 53.6 °F 72% 30.33 in 10.0 mi NNE 10.4 mph - N/A   Overcast
10:15 PM 62.6 °F 53.6 °F 72% 30.33 in 10.0 mi NNE 10.4 mph - N/A   Overcast
10:53 PM 63.0 °F 45.0 °F 52% 30.34 in 10.0 mi NNE 12.7 mph - N/A   Overcast
11:53 PM 62.1 °F 45.0 °F 53% 30.33 in 10.0 mi NNE 6.9 mph - N/A   Overcast